This is the latest recevied weather packets stored in our database for station/object IZ5MJO-13. If no packets are shown the sender has not sent any weather packets the latest 10 day(s).
| Time | Temp. | Humidity | Pressure | Rain* | Wind** | Luminosity | Snow |
|---|---|---|---|---|---|---|---|
| 1787425485 | 23.89° C | 31% | 1006.2 hPa | - | - | - | - |
| 1787424585 | 24.44° C | 30% | 1005.9 hPa | - | - | - | - |
| 1787423684 | 24.44° C | 30% | 1005.8 hPa | - | - | - | - |
| 1787422793 | 25° C | 31% | 1005.7 hPa | - | - | - | - |
| 1787421893 | 25.56° C | 30% | 1005.6 hPa | - | - | - | - |
| 1787420992 | 27.22° C | 28% | 1005.5 hPa | - | - | - | - |
| 1787420092 | 29.44° C | 26% | 1005.5 hPa | - | - | - | - |
| 1787419192 | 30.56° C | 28% | 1005.6 hPa | - | - | - | - |
| 1787418292 | 30° C | 25% | 1005.5 hPa | - | - | - | - |
| 1787417392 | 31.11° C | 25% | 1005.6 hPa | - | - | - | - |
| 1787416492 | 30.56° C | 28% | 1005.6 hPa | - | - | - | - |
| 1787416167 | 30.56° C | 28% | 1005.2 hPa | - | - | - | - |
| 1787416141 | 30.56° C | 27% | 1005.4 hPa | - | - | - | - |
| 1787416113 | 30.56° C | 29% | 1005.3 hPa | - | - | - | - |
| 1787416097 | 31.11° C | 30% | 1005.3 hPa | - | - | - | - |
| 1787416058 | 31.11° C | 29% | 1005.3 hPa | - | - | - | - |
| 1787416038 | 31.11° C | 33% | 1005.4 hPa | - | - | - | - |
| 1787415591 | 30.56° C | 28% | 1005.7 hPa | - | - | - | - |
| 1787414691 | 31.67° C | 28% | 1005.6 hPa | - | - | - | - |
| 1787413791 | 31.11° C | 29% | 1005.5 hPa | - | - | - | - |
| 1787412891 | 30.56° C | 29% | 1005.4 hPa | - | - | - | - |
| 1787411991 | 30.56° C | 29% | 1005.4 hPa | - | - | - | - |
| 1787411090 | 31.67° C | 29% | 1005.3 hPa | - | - | - | - |
| 1787410190 | 31.11° C | 29% | 1005.4 hPa | - | - | - | - |
| 1787409290 | 31.11° C | 30% | 1005.2 hPa | - | - | - | - |
* Rain since midnight (hover to see other rain measurements)
** Current wind speed in m/s (hover to see current wind gust speed)